Wind_Speed
18 17 16 15 14 14 13 13 12 12 11 11 10 9 8 8 7 7 6 6 6 6 6 7 7 7 7 7 7 6 6 6 6 7 7 7 7 7 7 6 6 6 6
19 17 17 16 15 15 14 13 13 12 12 11 11 11 10 10 9 9 8 8 8 8 8 8 9 9 9 9 9 9 8 8 8 8 8 8 9 9 9 9 8 8 8
19 18 17 17 16 15 15 14 14 13 12 12 12 12 11 11 11 10 10 10 10 10 10 10 11 11 11 11 11 11 11 11 11 10 10 10 10 10 11 11 11 10 10
19 18 18 17 17 16 16 15 15 14 13 13 13 13 13 13 12 12 12 11 12 12 12 12 12 12 13 13 13 13 13 13 13 13 13 12 12 12 12 12 13 12 12
20 19 19 18 18 17 17 17 16 16 15 15 14 14 14 14 14 14 14 13 14 14 14 14 14 14 14 15 15 15 15 15 15 15 15 15 15 14 14 14 15 15 15
21 21 20 19 19 18 18 18 18 18 17 17 16 16 16 16 16 15 15 15 15 15 15 16 16 16 16 16 16 16 17 17 17 17 18 18 17 17 17 17 16 17 17
22 22 22 21 20 20 19 19 19 19 19 19 18 17 17 17 17 17 17 17 17 17 17 17 17 17 17 17 17 18 18 18 18 19 19 19 19 19 19 19 19 19 19
23 23 23 22 22 21 21 20 20 21 20 20 20 20 19 20 20 20 20 19 19 19 19 19 20 20 20 20 20 20 20 20 20 20 21 21 21 21 21 21 21 21 21
25 25 24 24 23 23 22 22 22 22 22 22 22 22 22 22 22 22 22 22 22 22 22 22 22 22 22 22 22 23 23 23 23 23 23 23 23 23 23 23 23 23 23
27 26 26 25 25 25 24 23 23 24 24 24 24 25 25 25 25 25 25 24 24 25 25 25 25 25 25 25 25 25 25 25 25 25 25 25 25 25 25 25 25 25 25
29 28 27 27 26 26 25 25 25 25 25 26 26 26 27 27 27 27 27 27 27 27 27 27 27 27 27 27 27 27 27 27 27 28 27 27 27 27 27 27 27 27 27
30 29 29 28 28 28 27 27 27 27 27 27 27 28 28 29 29 29 29 29 29 29 29 29 29 29 29 30 30 30 30 30 30 30 30 30 30 30 30 29 29 29 29
31 31 30 30 29 30 29 29 29 29 29 29 29 30 30 31 31 31 31 31 31 31 31 32 31 31 31 31 32 32 32 32 32 32 32 32 32 32 32 32 32 31 31
32 31 31 31 31 31 31 31 31 31 32 32 32 32 32 32 32 32 31 32 32 33 33 33 34 34 34 34 34 34 34 34 34 34 34 34 34 34 34 34 34 34 33
32 32 32 32 32 32 32 33 33 33 33 33 33 33 32 32 32 32 33 33 33 34 34 34 35 35 35 35 35 35 36 36 36 35 35 35 35 35 35 35 36 36 36
33 33 33 33 33 33 33 33 33 33 33 34 33 33 33 33 33 33 33 34 34 35 35 35 35 35 36 36 37 37 37 38 38 37 37 37 37 37 37 37 37 37 37
35 35 34 34 34 34 33 34 34 33 34 34 34 35 35 35 35 35 35 36 36 37 37 38 38 39 39 40 40 40 40 39 40 40 40 39 39 39 39 40 39 39 38
36 36 36 35 35 35 35 35 34 35 35 35 35 36 36 36 36 36 37 37 38 38 39 40 41 42 42 43 43 43 43 43 43 43 43 43 42 42 42 42 42 42 42
37 37 37 36 36 36 36 36 36 36 36 37 37 37 37 37 38 38 38 38 39 40 40 42 42 43 44 44 44 44 44 45 45 44 45 45 45 45 45 44 44 44 44
37 37 37 37 37 37 37 37 37 37 37 38 38 38 38 38 39 39 40 41 41 42 42 43 43 44 44 44 45 45 46 46 47 47 47 48 48 48 48 48 48 48 47
37 37 37 37 37 37 36 36 36 36 37 38 39 39 39 39 40 41 41 42 43 43 44 44 45 45 45 45 45 46 46 46 47 48 49 49 50 51 51 51 51 51 51
35 36 36 36 35 35 35 36 36 36 37 38 39 40 40 40 41 41 42 43 44 44 44 44 44 45 45 45 45 46 46 46 46 47 48 50 51 52 53 53 53 53 52
35 35 35 36 36 36 37 37 37 38 38 39 39 40 41 41 41 42 43 43 43 44 45 45 45 45 44 45 45 45 45 45 46 46 48 49 51 53 53 54 54 53 53
35 35 36 36 37 37 38 39 39 39 39 40 40 41 41 42 42 43 42 42 43 43 43 44 44 43 43 44 44 45 45 46 46 46 47 49 50 51 52 53 53 53 53
34 35 36 36 37 38 38 39 39 39 40 40 40 40 41 42 42 42 42 42 42 42 42 42 42 43 43 43 44 45 45 46 47 47 47 48 49 50 52 52 54 55 54
33 34 34 35 35 35 36 36 37 37 38 38 39 39 40 40 40 40 40 41 41 41 41 41 42 42 43 44 44 45 45 46 47 47 47 47 48 48 50 51 52 53 55
Wind_Direction
234 233 233 233 234 236 238 238 238 240 242 244 246 247 249 252 251 250 252 255 256 256 257 258 257 258 259 259 259 261 263 265 264 266 267 267 266 267 271 274 277 281 284
233 233 233 233 234 235 236 239 241 243 243 245 247 249 251 254 256 257 258 261 262 261 261 261 262 262 262 262 262 263 263 265 265 264 265 266 265 265 266 269 271 274 276
231 232 233 233 234 234 236 239 242 244 245 247 249 251 253 256 258 260 261 262 264 265 265 265 265 264 264 264 265 264 264 264 265 265 265 265 265 265 266 267 268 270 272
229 231 233 234 235 235 237 240 243 246 248 250 252 254 256 257 259 262 264 263 263 264 265 266 268 267 265 265 265 266 266 265 264 265 265 265 265 265 265 266 267 268 270
229 231 234 236 238 239 240 242 245 248 251 253 255 257 259 260 261 263 265 265 266 266 266 267 268 269 269 268 267 268 268 267 266 264 264 266 266 267 266 266 267 267 267
231 233 236 239 241 243 244 245 247 250 253 255 257 259 261 262 262 264 265 267 267 269 269 269 269 269 270 269 270 270 270 269 268 265 264 264 266 267 267 266 266 266 266
234 236 239 241 244 246 248 249 250 252 254 255 257 260 262 264 265 265 266 268 269 270 271 271 271 270 270 270 270 270 269 270 270 268 266 265 265 267 268 267 267 267 267
237 239 241 244 247 249 251 252 252 253 255 256 258 261 264 266 267 267 268 268 269 269 270 271 272 271 271 270 270 270 270 270 270 270 268 267 267 266 267 267 268 268 268
240 242 244 245 248 250 251 252 254 256 257 259 261 263 264 266 268 269 269 269 269 269 270 270 271 271 271 271 271 270 271 271 270 269 269 268 269 268 268 267 268 268 268
242 244 246 247 249 252 253 254 256 258 260 261 262 264 265 267 268 269 270 270 270 270 270 271 271 270 271 271 271 271 271 271 270 270 269 268 268 269 268 268 268 268 268
243 245 246 248 250 252 255 256 258 259 261 262 264 265 266 267 268 269 269 270 270 270 271 271 270 270 270 270 271 271 272 271 271 270 269 269 269 269 269 268 267 267 267
243 245 247 248 250 253 255 257 259 260 262 264 265 266 266 266 267 268 269 269 269 270 270 270 270 270 270 270 271 271 272 271 271 271 270 269 268 268 268 268 268 267 267
243 245 247 249 251 254 256 258 260 261 263 264 265 266 266 267 268 268 268 269 269 269 270 270 271 271 270 271 271 271 271 270 271 271 270 270 268 267 267 268 268 267 268
244 246 248 250 252 254 256 258 260 262 263 263 264 265 266 267 267 268 268 269 270 270 271 271 271 271 271 270 270 270 270 270 271 271 271 270 269 268 268 268 268 267 267
244 246 248 251 253 255 258 259 261 262 264 264 264 265 266 267 268 269 270 270 270 271 271 272 272 272 272 272 271 271 271 271 271 271 271 270 270 269 269 269 269 268 268
245 247 250 252 254 256 257 259 261 262 263 264 265 266 267 268 269 270 270 271 271 271 272 272 272 272 273 273 272 272 271 271 271 270 270 270 270 270 269 269 268 268 268
247 249 251 253 254 255 257 259 261 262 263 264 265 267 268 268 269 269 270 270 271 271 272 272 273 273 273 273 273 272 272 271 271 271 270 270 269 270 270 270 268 268 268
248 250 251 253 254 256 258 260 260 261 262 264 266 267 268 269 269 270 270 271 271 272 273 273 273 274 274 273 273 272 272 271 271 271 270 270 269 269 269 269 269 268 267
249 251 252 254 256 258 259 261 262 262 263 265 266 268 268 269 270 270 271 272 273 274 275 275 275 274 274 274 273 272 272 272 272 272 271 270 270 269 268 268 268 268 267
251 252 254 255 257 259 260 262 263 264 265 267 268 268 269 270 271 272 273 274 275 276 277 276 276 276 276 275 274 273 272 272 271 271 271 270 269 268 268 267 267 267 266
251 253 255 257 258 260 262 263 265 266 267 269 270 270 270 271 273 274 274 275 276 276 277 277 277 277 277 276 275 274 273 272 272 271 270 270 269 268 268 268 267 266 266
253 254 256 257 259 262 264 265 267 268 270 270 271 271 272 273 274 274 274 275 276 277 278 278 277 277 276 276 276 275 273 272 272 272 271 270 269 269 269 268 267 266 266
254 256 258 260 262 264 265 266 268 270 271 271 272 273 274 274 275 275 275 277 278 279 279 279 279 278 276 275 276 277 275 273 272 272 273 273 272 271 270 268 267 265 264
256 258 260 261 263 265 266 268 269 271 271 272 273 274 275 275 276 276 277 278 279 280 279 279 279 278 277 276 277 277 277 276 274 273 273 274 273 272 271 269 267 265 265
258 260 261 263 265 266 268 270 271 271 272 273 274 275 275 276 277 278 279 280 280 280 280 280 279 277 277 277 277 277 277 276 276 275 273 273 273 273 272 270 269 266 265
259 261 262 264 265 267 269 270 271 273 273 273 274 275 276 277 278 279 280 281 281 281 280 280 279 278 277 277 277 277 277 277 276 275 274 273 273 273 272 269 269 267 266
Height
5870 5872 5873 5874 5875 5876 5877 5878 5879 5879 5880 5880 5880 5881 5881 5881 5881 5880 5880 5880 5880 5880 5879 5879 5879 5879 5879 5879 5879 5878 5878 5878 5878 5878 5877 5877 5877 5877 5876 5876 5876 5875 5875
5868 5869 5870 5872 5873 5874 5875 5876 5877 5877 5878 5878 5879 5879 5879 5879 5879 5879 5879 5879 5879 5878 5878 5878 5878 5878 5878 5877 5877 5877 5877 5877 5876 5876 5876 5876 5875 5875 5875 5875 5874 5874 5873
5865 5866 5868 5869 5870 5872 5873 5874 5875 5875 5876 5876 5877 5877 5877 5877 5877 5877 5877 5877 5877 5877 5876 5876 5876 5876 5876 5876 5876 5875 5875 5875 5875 5874 5874 5874 5873 5873 5873 5873 5872 5872 5872
5862 5863 5865 5866 5868 5869 5870 5871 5872 5873 5874 5874 5875 5875 5875 5875 5875 5875 5875 5875 5875 5875 5874 5874 5874 5874 5874 5874 5873 5873 5873 5873 5873 5872 5872 5872 5871 5871 5871 5870 5870 5870 5870
5859 5860 5862 5863 5865 5866 5867 5868 5870 5870 5871 5872 5872 5872 5873 5873 5873 5873 5873 5873 5873 5872 5872 5872 5872 5871 5871 5871 5871 5871 5870 5870 5870 5870 5869 5869 5869 5869 5868 5868 5868 5867 5867
5855 5857 5859 5860 5862 5863 5864 5865 5867 5867 5868 5869 5869 5870 5870 5870 5870 5870 5870 5870 5870 5870 5869 5869 5869 5869 5868 5868 5868 5868 5867 5867 5867 5866 5866 5866 5866 5866 5865 5865 5865 5864 5864
5852 5854 5855 5857 5858 5860 5861 5862 5863 5864 5865 5866 5866 5867 5867 5867 5867 5867 5867 5867 5867 5867 5866 5866 5866 5866 5865 5865 5865 5864 5864 5864 5863 5863 5863 5863 5863 5862 5862 5862 5861 5861 5861
5848 5850 5851 5853 5855 5856 5857 5858 5859 5860 5861 5862 5863 5863 5863 5864 5864 5864 5864 5864 5863 5863 5863 5862 5862 5862 5862 5861 5861 5861 5860 5860 5860 5859 5859 5859 5859 5859 5858 5858 5858 5857 5857
5843 5845 5847 5849 5850 5852 5853 5854 5855 5856 5857 5858 5858 5859 5859 5860 5860 5860 5860 5859 5859 5859 5859 5858 5858 5858 5857 5857 5857 5857 5856 5856 5856 5855 5855 5855 5854 5854 5854 5854 5854 5853 5853
5839 5841 5843 5844 5846 5847 5848 5849 5851 5852 5853 5853 5854 5854 5855 5855 5855 5855 5855 5855 5855 5854 5854 5854 5853 5853 5853 5852 5852 5852 5851 5851 5851 5850 5850 5850 5850 5849 5849 5849 5849 5849 5848
5834 5836 5838 5839 5841 5842 5843 5845 5846 5847 5848 5848 5849 5849 5850 5850 5850 5850 5850 5850 5850 5849 5849 5848 5848 5848 5847 5847 5847 5846 5846 5846 5845 5845 5845 5845 5845 5844 5844 5844 5844 5844 5843
5828 5831 5833 5834 5836 5837 5838 5839 5841 5842 5842 5843 5843 5844 5844 5844 5844 5844 5844 5844 5844 5843 5843 5843 5842 5842 5841 5841 5841 5841 5840 5840 5840 5839 5839 5839 5839 5838 5838 5838 5838 5838 5838
5823 5825 5827 5829 5830 5832 5833 5834 5835 5836 5837 5837 5838 5838 5838 5838 5838 5838 5838 5838 5837 5837 5837 5836 5836 5836 5835 5835 5835 5834 5834 5834 5833 5833 5833 5833 5832 5832 5832 5832 5832 5832 5832
5817 5820 5822 5823 5825 5826 5827 5828 5829 5830 5830 5831 5831 5831 5832 5832 5832 5831 5831 5831 5831 5830 5830 5830 5830 5829 5829 5828 5828 5827 5827 5827 5827 5826 5826 5826 5826 5826 5825 5825 5825 5825 5825
5811 5814 5816 5817 5819 5820 5821 5822 5823 5823 5824 5824 5824 5824 5825 5825 5825 5825 5825 5824 5824 5823 5823 5823 5822 5822 5822 5821 5821 5820 5820 5819 5819 5819 5819 5819 5818 5818 5818 5818 5818 5818 5818
5806 5808 5809 5811 5813 5814 5815 5815 5816 5816 5817 5817 5817 5817 5818 5818 5818 5818 5817 5817 5817 5816 5816 5815 5815 5815 5814 5814 5813 5813 5812 5812 5811 5811 5811 5811 5811 5810 5810 5810 5810 5810 5810
5800 5801 5803 5805 5806 5807 5808 5809 5809 5809 5810 5810 5810 5810 5811 5810 5811 5810 5810 5809 5809 5808 5808 5807 5807 5806 5806 5805 5805 5804 5804 5803 5803 5802 5802 5802 5802 5801 5801 5801 5801 5802 5802
5793 5795 5797 5798 5799 5800 5801 5801 5802 5802 5803 5803 5803 5803 5803 5803 5803 5802 5802 5802 5801 5800 5799 5799 5798 5797 5797 5796 5795 5795 5794 5794 5794 5793 5793 5793 5792 5792 5792 5792 5792 5792 5793
5786 5788 5790 5791 5792 5793 5794 5794 5794 5795 5795 5795 5795 5795 5795 5795 5794 5794 5794 5793 5792 5791 5791 5790 5789 5788 5787 5786 5785 5784 5784 5783 5783 5783 5783 5782 5782 5782 5782 5782 5782 5782 5782
5780 5781 5783 5784 5785 5786 5786 5787 5787 5787 5787 5787 5786 5786 5786 5786 5786 5785 5785 5784 5783 5782 5781 5780 5778 5777 5776 5775 5774 5773 5773 5772 5772 5772 5771 5771 5771 5770 5770 5770 5770 5771 5771
5773 5774 5776 5777 5778 5779 5779 5779 5780 5779 5779 5779 5778 5778 5778 5777 5777 5776 5775 5775 5773 5772 5771 5770 5768 5767 5765 5764 5763 5762 5762 5761 5761 5760 5759 5759 5759 5758 5758 5758 5758 5758 5759
5766 5767 5768 5770 5770 5771 5772 5772 5772 5772 5771 5771 5770 5769 5769 5768 5768 5767 5766 5765 5764 5762 5760 5759 5758 5756 5755 5753 5752 5751 5751 5751 5750 5748 5747 5746 5746 5745 5745 5745 5745 5745 5746
5759 5760 5761 5762 5763 5763 5763 5764 5763 5763 5762 5762 5761 5760 5760 5759 5758 5757 5756 5755 5753 5752 5750 5748 5746 5745 5743 5742 5741 5740 5739 5740 5739 5738 5735 5734 5733 5732 5732 5731 5731 5732 5732
5752 5753 5754 5755 5755 5755 5755 5755 5755 5754 5754 5753 5752 5751 5750 5749 5748 5747 5745 5744 5743 5741 5739 5737 5735 5733 5732 5731 5730 5729 5728 5727 5726 5726 5725 5722 5720 5719 5718 5718 5718 5718 5718
5745 5745 5746 5746 5747 5747 5747 5746 5746 5745 5744 5743 5743 5742 5741 5739 5738 5737 5735 5734 5732 5730 5728 5726 5725 5723 5722 5721 5720 5718 5717 5715 5713 5713 5713 5711 5708 5706 5704 5704 5704 5704 5705
5737 5738 5738 5738 5738 5738 5738 5737 5737 5736 5735 5734 5733 5732 5731 5730 5728 5727 5725 5723 5722 5720 5718 5716 5714 5712 5711 5709 5708 5706 5705 5703 5702 5700 5699 5698 5696 5694 5692 5691 5690 5690 5691